Tracking 18856 objects as of 12-Dec-2017
HD Live streaming from Space Station
objects crossing your sky now

AZUR (GRS A)

Track AZUR (GRS A) now!
10-day predictions
AZUR (GRS A) is classified as:


NORAD ID: 4221
Int'l Code: 1969-097A
Perigee: 363.4 km
Apogee: 1,275.7 km
Inclination: 102.7 °
Period: 101.1 minutes
Semi major axis: 7190 km
RCS: 0.3339 m2 (medium)
Launch date: November 8, 1969
Source: Germany (GER)
Launch site: AIR FORCE WESTERN TEST RANGE (AFWTR)
aabbcc
Your satellite tracking list
Your tracking list is empty




NASA's NSSDC Master Catalog

Two Line Element Set (TLE):
1  4221U 69097A   17345.56771921 +.00004273 +00000-0 +20361-3 0  9999
2  4221 102.6889 289.7891 0634315 044.0948 320.9034 14.23837281274430
Source of the keplerian elements: AFSPC